sat.trackr.live / text

‹ back to catalog

STARLINK-34602

NORAD 65333 · 2025-189L

PAYLOAD ACTIVE UNKNOWN

§ Identity

Operator
Country
US
Launch date
2025-08-27
Launch site
AFETR
Launch vehicle
Mass (kg)
RCS (m²)

Purposes: comms

External: N2YO · Heavens-Above · Gunter

§ Orbital elements

Epoch: 2026-09-20T14:58:53.993856Z

Period
94.01 min
Inclination
53.1549°
Eccentricity
0.0001402
Mean motion
15.31710645 rev/d
Perigee alt
469.7 km
Apogee alt
471.7 km
Semi-major
6,848.8 km
B*
2.5454e-4
RAAN
19.7607°
Arg perigee
87.4679°
Mean anomaly
272.6483°
Rev number
6,097

§ Raw data

STARLINK-346021 65333U 25189L   26263.62423604  .00007544  00000+0  25454-3 0  99932 65333  53.1549  19.7607 0001402  87.4679 272.6483 15.31710645 60974

JSON: /api/v1/satellites/65333 · /tle

For live sub-satellite position, see the globe view (requires WebGL).

§ Visibility from observer

Set your observer location to see the next 7 days of passes ≥ 10°. The values pass through the URL so the page stays shareable.

No JS? Fill the form by hand. The geolocation button needs JavaScript.